Weather in Bergi

Latvia     56°59′19″N   24°18′32″E
temp.,
°C
wind,
m/s
gust,
m/s
humid.,
%
clouds,
%
prec.,
mm/h
press.,
hPa
HPBL,
m
20 april, tue
tue2000:00+10e31055100 0.0 1021317
03:00+9e2664100 0.0 1020184
06:00+8ese136668 0.0 101966
09:00+11ene235459 0.0 1018375
12:00+15n233454 0.0 10161861
15:00+15n3338100 0.0 10151307
18:00+14e1247100 0.0 10131356
21:00+11e2456100 0.1 1013222
21 april, wed
wed2100:00+9se266689 0.0 1012238
03:00+7sse257973 0.0 1011149
06:00+6sse23875 0.0 100981
09:00+10sse22676 0.0 1008392
12:00+14wsw224699 0.1 10071519
15:00+14wnw244178 0.1 10051627
18:00+15wnw243322 0.0 10041657
21:00+10wnw125055 0.0 100572
22 april, thu
thu2200:00+8sw376250 0.0 1005300
03:00+6ssw39764 0.0 1005380
06:00+5s377584 0.0 1005366
09:00+5ssw4788100 0.6 1005638
12:00+8s594964 0.3 10051834
15:00+9sw8125392 0.7 10051790
18:00+9ssw6114456 0.3 10052013
21:00+5sw597336 0.4 1007967
23 april, fri
fri2300:00+3ssw597960 0.0 1006783
03:00+3ssw4881100 0.1 1006897
06:00+2s41095100 0.5 1004565
09:00+3ssw4781100 0.8 1005982
12:00+5sw586757 0.2 10061164
15:00+6wsw7106491 0.6 10071437
18:00+5w4872100 1.9 10101248
21:00+3wsw4974100 2.0 1010776
24 april, sat
sat2400:00+2wsw4985100 0.0 1010636
03:00+1sw3896100 0.3 1009448
06:00+2wsw4896100 0.8 1008583
09:00+2w2698100 1.4 1008337
12:00+5nw456663 0.4 10081057
15:00+6nw476668 0.8 10091242
18:00+4nw587763 0.4 1010913
21:00+3nw5979100 0.6 1011927